Stations météo

réclame
Mon MeteoGroup
Putbus, Allemagne (10093): Température de l'air & dewpoint: 09.12.2018 12:00:00 - 15.12.2018 12:00:00 (CET)Putbus, Allemagne (10093): Température de l'air 5cm & Température de l'air -5cm: 09.12.2018 12:00:00 - 15.12.2018 12:00:00 (CET)Putbus, Allemagne (10093): Température de l'air -20cm & Température de l'air -100cm: 09.12.2018 12:00:00 - 15.12.2018 12:00:00 (CET)Putbus, Allemagne (10093): Vitesse du vent & gusts: 09.12.2018 12:00:00 - 15.12.2018 12:00:00 (CET)Putbus, Allemagne (10093): Direction du vent: 09.12.2018 12:00:00 - 15.12.2018 12:00:00 (CET)Putbus, Allemagne (10093): reduced air pressure: 09.12.2018 12:00:00 - 15.12.2018 12:00:00 (CET)Putbus, Allemagne (10093): visibility: 09.12.2018 12:00:00 - 15.12.2018 12:00:00 (CET)Putbus, Allemagne (10093): Ensoleillement: 09.12.2018 12:00:00 - 15.12.2018 12:00:00 (CET)Putbus, Allemagne (10093): Quantités de précipitations: 09.12.2018 12:00:00 - 15.12.2018 12:00:00 (CET)
Date & Time tt [°C] td [°C] tt 5cm [°C] tt -5cm [°C] tt -20cm [°C] tt -100cm [°C] ff [km/h] ff [knt] fx [km/h] fx [knt] dd ppp [hPa] vv [km] sd [min] rr [mm]
15.12.2018 12:00:00 0,6 -3,2 1,0 1,4 2,1 7,0 8 4 11 6 NW 1030,5 26 0 0,0
15.12.2018 11:00:00 0,4 -2,3 0,8 1,1 2,1 7,0 5 3 7 4 NW 1031,2 23 0 0,0
15.12.2018 10:00:00 0,2 -2,3 0,2 0,7 2,1 7,0 3 2 6 3 N 1031,4 24 0 0,0
15.12.2018 09:00:00 0,0 -2,1 -0,1 0,6 2,1 7,0 3 1 8 4 WNW 1031,2 23 0 0,0
15.12.2018 08:00:00 -0,1 -2,1 -0,3 0,6 2,1 7,0 4 2 6 3 NNW 1031,0 25 0 0,0
15.12.2018 07:00:00 -0,1 -1,8 -0,2 0,6 2,1 7,0 4 2 5 3 NNW 1030,9 33 0 0,0
15.12.2018 06:00:00 0,3 -3,2 -0,1 0,6 2,1 7,0 3 2 9 5 SSW 1030,7 35 0 0,0
15.12.2018 05:00:00 0,4 -3,4 0,1 0,5 2,1 7,1 4 2 10 5 S 1030,7 32 0 0,0
15.12.2018 04:00:00 0,4 -3,6 0,0 0,5 2,1 7,1 4 2 11 6 SSE 1030,6 41 0 0,0
15.12.2018 03:00:00 0,5 -4,4 0,2 0,5 2,1 7,1 7 4 14 8 SSE 1030,8 55 0 0,0
15.12.2018 02:00:00 0,3 -3,3 0,0 0,5 2,2 7,1 6 3 11 6 ESE 1030,8 28 0 0,0
15.12.2018 01:00:00 0,3 -3,0 0,0 0,5 2,2 7,1 7 4 19 10 SSE 1030,5 22 0 0,0
15.12.2018 00:00:00 0,4 -3,7 0,1 0,5 2,2 7,1 10 6 19 10 SSE 1030,5 24 0 0,0
14.12.2018 23:00:00 0,3 -3,7 0,0 0,5 2,3 7,1 8 4 21 12 E 1030,4 31 0 0,0
14.12.2018 22:00:00 0,7 -4,0 0,4 0,5 2,3 7,1 11 6 22 12 ESE 1030,4 36 0 0,0
14.12.2018 21:00:00 0,9 -3,8 0,5 0,6 2,4 7,1 6 4 16 9 ESE 1030,3 32 0 0,0
14.12.2018 20:00:00 0,3 -2,3 -0,3 0,7 2,4 7,1 3 2 8 4 E 1030,0 22 0 0,0
14.12.2018 19:00:00 0,2 -2,3 -0,3 0,7 2,5 7,1 3 2 8 4 NE 1029,8 22 0 0,0
14.12.2018 18:00:00 0,5 -3,8 0,1 0,7 2,5 7,1 5 3 13 7 ESE 1029,7 28 0 0,0
14.12.2018 17:00:00 0,6 -3,5 0,3 0,8 2,6 7,2 7 4 19 11 ESE 1029,5 25 0 0,0
14.12.2018 16:00:00 0,6 -3,2 0,4 1,2 2,6 7,2 8 5 16 9 ESE 1029,1 24 0 0,0
14.12.2018 15:00:00 0,7 -3,1 0,6 1,5 2,6 7,2 7 4 14 7 ESE 1028,8 29 0 0,0
14.12.2018 14:00:00 0,7 -2,0 0,7 1,6 2,5 7,2 6 3 22 12 SE 1028,5 19 0 0,0
14.12.2018 13:00:00 0,9 -3,2 0,8 1,3 2,5 7,2 17 9 32 17 E 1028,3 26 0 0,0
14.12.2018 12:00:00 0,8 -3,3 0,7 1,1 2,5 7,2 12 7 34 18 E 1028,3 51 0 0,0
14.12.2018 11:00:00 0,9 -3,6 0,7 1,0 2,6 7,2 18 10 35 19 E 1028,3 43 0 0,0
14.12.2018 10:00:00 1,1 -2,3 0,8 1,0 2,6 7,2 12 6 24 13 E 1028,0 45 0 0,0
14.12.2018 09:00:00 1,3 -2,8 1,0 0,9 2,6 7,2 12 7 33 18 ESE 1027,4 49 0 0,0
14.12.2018 08:00:00 1,4 -2,6 0,8 1,1 2,7 7,2 15 8 28 15 E 1026,8 45 0 0,0
14.12.2018 07:00:00 1,0 -0,3 0,5 1,2 2,7 7,2 6 4 13 7 E 1026,5 13 0 0,0
14.12.2018 06:00:00 0,6 -0,3 0,2 1,2 2,7 7,2 6 3 17 9 ESE 1026,3 22 0 0,1
14.12.2018 05:00:00 0,8 0,5 0,5 1,3 2,7 7,2 3 2 7 4 NNE 1026,3 8 0 0,0
14.12.2018 04:00:00 0,6 0,4 0,3 1,2 2,7 7,2 4 2 5 3 N 1026,2 12 0 0,0
14.12.2018 03:00:00 0,5 0,2 0,1 1,1 2,8 7,3 2 1 4 2 N 1026,2 15 0 0,0
14.12.2018 02:00:00 0,6 0,3 0,2 1,1 2,8 7,3 4 2 6 4 N 1026,1 17 0 0,0
14.12.2018 01:00:00 0,6 0,3 0,2 1,0 2,9 7,3 3 2 10 5 N 1026,0 20 0 0,0
14.12.2018 00:00:00 0,7 0,2 0,1 0,9 3,0 7,3 8 5 12 6 NNE 1025,9 25 0 0,0
13.12.2018 23:00:00 0,4 0,0 0,0 0,8 3,1 7,3 4 2 20 11 ENE 1026,1 31 0 0,5
13.12.2018 22:00:00 0,9 0,2 0,3 1,3 3,2 7,3 13 7 24 13 NE 1026,0 1,6 0 0,0
13.12.2018 21:00:00 0,1 -0,5 -0,6 1,2 3,4 7,3 7 4 13 7 NNE 1025,6 19 0 0,0
13.12.2018 20:00:00 1,9 1,0 1,4 1,7 3,5 7,3 7 4 21 11 E 1025,5 28 0 0,0
13.12.2018 19:00:00 1,4 0,8 0,7 2,0 3,5 7,3 8 4 19 10 NE 1025,4 24 0 0,1
13.12.2018 18:00:00 1,2 0,7 1,0 2,1 3,6 7,3 5 3 18 10 E 1025,5 36 0 0,5
13.12.2018 17:00:00 1,4 0,8 1,3 2,4 3,7 7,3 7 4 29 16 ESE 1025,6 10 0 0,1
13.12.2018 16:00:00 1,7 1,0 1,6 2,8 3,7 7,3 7 4 17 9 ENE 1025,7 34 0 0,1
13.12.2018 15:00:00 1,9 0,8 1,7 3,1 3,7 7,3 14 8 25 14 ENE 1025,8 6 0 0,4
13.12.2018 14:00:00 2,7 1,5 2,8 3,8 3,5 7,3 11 6 27 15 NNE 1025,7 57 13 0,0
13.12.2018 13:00:00 3,7 1,4 4,4 3,7 3,3 7,3 7 4 15 8 ENE 1026,0 25 28 0,0
13.12.2018 12:00:00 2,8 1,2 2,6 2,9 3,2 7,3 7 4 20 11 E 1026,3 41 0 0,0
13.12.2018 11:00:00 2,2 1,3 2,1 2,3 3,1 7,3 8 4 24 13 E 1026,6 54 0 0,2
13.12.2018 10:00:00 2,2 0,9 2,0 1,8 3,1 7,3 15 8 26 14 E 1026,7 27 0 0,0
13.12.2018 09:00:00 2,5 0,8 1,7 1,6 3,1 7,4 19 11 35 19 ENE 1026,5 56 0 0,1
13.12.2018 08:00:00 2,2 1,1 1,4 1,4 3,2 7,4 10 6 19 11 ENE 1026,6 70 0 0,0
13.12.2018 07:00:00 1,1 0,9 -0,6 1,2 3,3 7,4 4 2 8 5 E 1026,2 35 0 0,1
13.12.2018 06:00:00 1,2 0,9 1,0 1,6 3,3 7,4 4 2 7 4 NW 1026,6 13 0 0,1
13.12.2018 05:00:00 1,2 0,7 0,9 1,2 3,5 7,4 6 3 12 6 NNW 1026,8 20 0 1,1
13.12.2018 04:00:00 0,4 -0,2 -0,3 1,0 3,6 7,4 7 4 14 7 NW 1027,2 38 0 0,0
13.12.2018 03:00:00 1,2 -0,2 0,0 1,6 3,8 7,4 7 4 14 8 N 1027,6 36 0 0,0
13.12.2018 02:00:00 2,0 -0,1 1,2 1,7 3,9 7,4 10 6 16 9 N 1027,6 70 0 0,0
13.12.2018 01:00:00 1,2 -0,6 -1,4 1,6 4,1 7,4 9 5 16 9 NNE 1028,0 70 0 0,0
13.12.2018 00:00:00 2,0 0,2 1,1 2,7 4,2 7,4 14 7 30 16 NE 1028,3 70 0 0,0
12.12.2018 23:00:00 3,0 0,7 2,8 3,0 4,3 7,4 14 8 27 14 NE 1028,3 61 0 0,0
12.12.2018 22:00:00 3,3 0,7 3,1 3,1 4,3 7,4 17 9 33 18 NE 1028,2 58 0 0,0
12.12.2018 21:00:00 3,6 0,9 3,4 3,2 4,4 7,4 21 11 36 20 ENE 1028,2 70 0 0,0
12.12.2018 20:00:00 3,7 1,1 3,3 3,5 4,4 7,4 27 14 39 21 ENE 1028,0 66 0 0,0
12.12.2018 19:00:00 4,0 1,9 3,5 3,7 4,5 7,4 27 15 40 22 NE 1027,9 38 0 0,1
12.12.2018 18:00:00 4,2 2,7 3,7 3,7 4,5 7,4 20 11 36 20 ENE 1027,6 43 0 0,0
12.12.2018 17:00:00 3,3 2,0 2,9 3,7 4,5 7,4 10 5 39 21 ENE 1027,4 65 0 1,2
12.12.2018 16:00:00 3,7 1,9 3,1 4,0 4,5 7,4 23 12 36 20 NE 1027,1 10 0 0,2
12.12.2018 15:00:00 4,7 2,5 4,2 4,5 4,5 7,4 19 11 32 17 NE 1026,7 49 0 0,0
12.12.2018 14:00:00 4,5 2,8 4,0 4,6 4,4 7,4 21 12 29 16 ENE 1026,5 12 0 0,0
12.12.2018 13:00:00 4,0 2,9 4,0 4,5 4,2 7,4 16 8 37 20 NE 1026,3 39 1 0,4
12.12.2018 12:00:00 4,8 2,6 4,6 4,1 4,1 7,5 20 11 45 24 ENE 1026,0 35 0 0,0
12.12.2018 11:00:00 5,0 2,2 4,9 3,8 4,1 7,5 26 14 40 22 NE 1026,0 54 0 0,0
12.12.2018 10:00:00 4,8 2,0 4,6 3,4 4,1 7,5 20 11 38 21 NE 1025,6 56 0 0,0
12.12.2018 09:00:00 4,4 1,6 3,8 3,3 4,1 7,5 16 9 29 16 NNE 1025,3 46 0 0,0
12.12.2018 08:00:00 4,3 1,7 3,1 3,4 4,1 7,5 19 10 36 19 NNE 1024,6 41 0 0,0
12.12.2018 07:00:00 4,3 2,5 3,6 3,3 4,0 7,5 17 9 33 18 NNE 1024,1 33 0 0,0
12.12.2018 06:00:00 4,5 2,9 3,8 3,4 4,0 7,5 20 11 45 25 NNE 1023,5 46 0 0,2
12.12.2018 05:00:00 4,5 2,7 3,8 3,2 4,0 7,5 17 9 29 16 NNE 1023,1 42 0 0,1
12.12.2018 04:00:00 4,6 3,0 3,8 3,1 4,0 7,5 18 10 29 16 NNE 1022,6 49 0 0,1
12.12.2018 03:00:00 4,5 2,7 3,5 2,8 4,0 7,5 14 8 29 16 NNE 1022,3 56 0 0,0
12.12.2018 02:00:00 4,1 2,7 2,8 2,8 4,1 7,5 14 7 23 12 N 1021,6 63 0 0,0
12.12.2018 01:00:00 4,5 2,7 3,5 3,4 4,1 7,5 18 10 28 15 NNE 1021,2 66 0 0,1
12.12.2018 00:00:00 4,6 2,8 3,7 3,4 4,0 7,5 17 9 27 14 N 1020,8 8 0 0,3
11.12.2018 23:00:00 4,4 2,7 3,5 3,2 4,0 7,5 16 9 26 14 N 1020,2 56 0 0,0
11.12.2018 22:00:00 4,4 2,2 3,4 3,0 4,0 7,5 18 10 33 18 N 1019,8 10 0 0,1
11.12.2018 21:00:00 4,3 1,9 3,1 2,7 4,1 7,5 18 10 26 14 N 1019,4 60 0 0,0
11.12.2018 20:00:00 3,4 1,5 1,4 2,3 4,2 7,5 14 8 25 14 N 1018,7 70 0 0,0
11.12.2018 19:00:00 3,3 1,7 2,4 2,8 4,3 7,5 16 9 29 16 N 1018,1 17 0 0,5
11.12.2018 18:00:00 3,4 1,3 1,4 2,9 4,3 7,5 15 8 40 22 N 1017,4 70 0 0,7
11.12.2018 17:00:00 4,1 1,2 3,0 3,1 4,4 7,5 19 11 35 19 N 1016,5 59 0 0,0
11.12.2018 16:00:00 4,5 1,8 3,7 3,8 4,4 7,6 20 11 32 17 N 1015,9 70 0 0,0
11.12.2018 15:00:00 4,4 2,1 3,6 3,9 4,3 7,6 18 10 30 16 N 1015,2 21 0 0,0
11.12.2018 14:00:00 4,1 2,4 3,5 4,0 4,3 7,6 19 11 36 19 N 1014,6 13 0 0,0
11.12.2018 13:00:00 4,0 2,0 3,5 3,9 4,2 7,6 22 12 32 17 N 1013,9 42 0 0,0
11.12.2018 12:00:00 4,1 2,2 3,7 3,7 4,1 7,6 14 8 30 16 N 1013,5 57 0 0,1
11.12.2018 11:00:00 3,8 2,2 3,4 3,4 4,0 7,6 16 9 28 15 N 1013,0 8 0 0,0
11.12.2018 10:00:00 3,9 1,9 3,5 2,9 4,0 7,6 13 7 24 13 NNW 1012,5 36 0 0,0
11.12.2018 09:00:00 3,4 0,3 2,8 2,4 4,1 7,6 13 7 27 15 NNW 1011,8 13 0 0,0
11.12.2018 08:00:00 2,8 -1,1 1,9 2,3 4,3 7,6 18 10 42 23 N 1011,1 70 0 0,0
11.12.2018 07:00:00 3,2 -1,1 2,5 2,6 4,3 7,6 26 14 45 24 N 1010,2 70 0 0,0
11.12.2018 06:00:00 3,7 -0,4 3,2 3,0 4,4 7,6 27 14 44 24 N 1009,0 61 0 0,0
11.12.2018 05:00:00 3,8 0,5 2,9 3,2 4,4 7,6 23 12 39 21 N 1008,1 18 0 0,0
11.12.2018 04:00:00 3,9 1,1 3,2 3,3 4,5 7,6 21 11 36 20 NNW 1007,1 67 0 0,0
11.12.2018 03:00:00 3,2 2,0 2,7 3,4 4,5 7,6 22 12 44 24 NNW 1006,4 26 0 0,5
11.12.2018 02:00:00 4,1 2,3 3,4 3,6 4,5 7,6 28 15 49 26 NW 1005,6 29 0 0,4
11.12.2018 01:00:00 4,1 2,2 3,3 3,6 4,5 7,6 30 16 51 28 WNW 1005,3 16 0 0,3
11.12.2018 00:00:00 5,4 1,9 4,4 3,7 4,5 7,6 35 19 56 30 WNW 1005,2 26 0 0,0
10.12.2018 23:00:00 5,1 2,3 4,6 3,6 4,5 7,6 26 14 42 23 W 1005,3 23 0 0,0
10.12.2018 22:00:00 5,2 1,9 4,7 3,4 4,5 7,6 29 16 45 24 WNW 1005,3 34 0 0,0
10.12.2018 21:00:00 4,9 1,8 4,3 3,1 4,6 7,6 26 14 39 21 WNW 1005,2 34 0 0,0
10.12.2018 20:00:00 4,7 1,6 3,8 3,1 4,7 7,6 22 12 36 19 WNW 1005,1 37 0 0,0
10.12.2018 19:00:00 4,7 1,1 3,8 3,0 4,8 7,6 22 12 39 21 WNW 1005,1 43 0 0,0
10.12.2018 18:00:00 4,6 1,0 3,2 3,3 4,9 7,6 19 11 40 22 WNW 1004,7 35 0 0,0
10.12.2018 17:00:00 4,6 1,9 3,5 3,7 5,0 7,6 28 15 44 24 W 1004,4 40 0 0,0
10.12.2018 16:00:00 4,2 2,1 3,1 3,8 5,0 7,6 31 17 46 25 W 1004,3 3,0 0 0,1
10.12.2018 15:00:00 5,0 1,8 4,2 4,2 5,0 7,6 31 17 55 30 W 1004,2 35 0 0,0
10.12.2018 14:00:00 5,3 1,5 4,5 4,6 5,0 7,6 27 15 45 25 W 1004,1 31 1 0,0
10.12.2018 13:00:00 5,4 1,6 5,3 4,8 4,9 7,6 29 15 48 26 W 1004,3 35 1 0,0
10.12.2018 12:00:00 5,1 1,8 4,8 4,5 4,8 7,6 31 17 44 24 W 1004,3 26 0 0,1
10.12.2018 11:00:00 5,1 2,1 4,4 4,3 4,8 7,6 28 15 46 25 W 1004,1 41 1 0,2
10.12.2018 10:00:00 5,2 1,9 4,9 3,9 4,8 7,6 30 16 51 28 W 1003,6 28 0 0,0
10.12.2018 09:00:00 5,0 1,6 4,6 3,6 4,8 7,6 29 16 49 26 W 1003,0 30 0 0,0
10.12.2018 08:00:00 5,1 1,2 4,6 3,6 4,8 7,6 27 14 49 26 WNW 1002,5 29 0 0,0
10.12.2018 07:00:00 5,4 0,9 4,8 3,3 4,9 7,6 29 16 49 27 WNW 1001,8 32 0 0,0
10.12.2018 06:00:00 4,6 1,2 3,1 3,4 5,0 7,6 31 17 55 30 WNW 1001,3 32 0 0,0
10.12.2018 05:00:00 5,2 0,8 4,3 3,3 5,1 7,6 24 13 46 25 WNW 1000,7 38 0 0,0
10.12.2018 04:00:00 4,8 1,2 3,9 3,4 5,2 7,6 26 14 44 24 WNW 1000,1 30 0 0,0
10.12.2018 03:00:00 5,2 1,8 4,6 3,8 5,3 7,6 28 15 42 23 WNW 999,4 29 0 0,0
10.12.2018 02:00:00 4,8 3,0 4,4 3,2 5,5 7,6 18 10 28 15 W 998,9 45 0 0,0
10.12.2018 01:00:00 4,1 1,6 2,2 3,0 5,7 7,5 18 10 34 19 W 998,3 52 0 0,0
10.12.2018 00:00:00 4,4 1,5 3,1 3,9 5,9 7,5 20 11 45 24 WNW 997,7 55 0 0,0
09.12.2018 23:00:00 5,0 0,6 4,3 4,5 6,0 7,5 28 15 49 26 NW 996,2 56 0 0,0
09.12.2018 22:00:00 5,7 2,6 5,1 5,3 6,1 7,5 29 16 46 25 NW 994,5 51 0 0,0
09.12.2018 21:00:00 5,9 4,5 5,4 5,5 6,2 7,5 23 12 40 22 WNW 992,8 17 0 0,0
09.12.2018 20:00:00 5,7 4,4 5,0 5,6 6,2 7,5 25 14 42 23 WNW 991,4 15 0 1,3
09.12.2018 19:00:00 6,3 4,5 5,4 5,8 6,3 7,5 26 14 36 20 W 990,4 36 0 0,0
09.12.2018 18:00:00 6,3 5,3 5,7 6,0 6,3 7,5 22 12 41 22 W 989,6 33 0 0,6
09.12.2018 17:00:00 6,5 5,3 5,9 6,0 6,3 7,5 19 11 36 19 W 989,2 6 0 0,1
09.12.2018 16:00:00 6,8 4,9 6,3 6,1 6,4 7,5 20 11 35 19 WSW 988,8 48 0 0,0
09.12.2018 15:00:00 6,8 5,1 5,8 6,7 6,3 7,5 25 13 38 20 W 988,2 42 0 0,0
09.12.2018 14:00:00 6,8 5,6 6,4 6,9 6,2 7,5 26 14 39 21 W 987,7 44 0 0,4
09.12.2018 13:00:00 6,8 5,8 6,5 6,8 6,1 7,5 20 11 36 19 W 987,1 26 0 0,4
09.12.2018 12:00:00 6,8 5,4 6,5 6,5 6,0 7,5 24 13 38 20 WSW 986,9 12 0 0,0

tt = Température de l'air
td = dewpoint
tt 5cm = Température de l'air 5cm
tt -5cm = Température de l'air -5cm
tt -20cm = Température de l'air -20cm
tt -100cm = Température de l'air -100cm
ff = Vitesse du vent
fx = gusts
dd = Direction du vent
ppp = reduced air pressure
vv = visibility
sd = Ensoleillement
rr = Quantités de précipitations

stations d'obs. à proximité